User: anonymous   Login
Location: UBC Liquid-Mirror Observatory
(49.2876°N, 122.5728°W)
Time: 12:11:11
(UTC-08:00)
Language:

KITSAT 1 - Orbit

View from above orbital plane
View from above orbital plane
View from above satellite
View from above satellite

Ground track
Ground track

The orbit data is extracted from the following two-line orbital elements,

1 22077U 92052B   17017.88283493 -.00000042 +00000-0 +79656-4 0  9991
2 22077 066.0853 281.3918 0000437 029.0065 091.2492 12.86516819147686
Epoch (UTC): 17 January 2017 21:11:16
Eccentricity: 0.0000437
inclination: 66.0853°
perigee height: 1315 km
apogee height: 1316 km
right ascension of ascending node: 281.3918°
argument of perigee: 29.0065°
revolutions per day: 12.86516819
mean anomaly at epoch: 91.2492°
orbit number at epoch: 14768

The dashed part of the orbit path shows where the satellite is in the earth's shadow,  

DLR